STARLINK-32726 (62446 NORAD) Tracking and Keplerian Element Data

This shows tracking and keplerian element data for the satellite.

Feedback or suggestion? Click here.




ElementValue
Catalog62446
NameSTARLINK-32726
Epoch Orbit650
Epoch Day35.16668981
Epoch Year2025
RAAN34.7854
Inclination53.16
Eccentricity0.0001681
Argument of Perigee88.7323
Mean Anonmoly311.6787
Mean Motion15.39647716
Decay Rate2.501E-05
L11 62446U 24251Q 25035.16668981 .00002501 00000+0 72425-4 0 9997
L22 62446 53.1600 34.7854 0001681 88.7323 311.6787 15.39647716 6500



Live tracking and technical data element details for STARLINK-32726 (NORAD 62446). STARLINK-32726 can be tracked NOW for your location showing map with azimuth and elevation plus other details from your city location.







IsCatalogInMostPopularTable: catalog: 62446, numindb: 11
Update: records affected: 1



GetName: 62446 STARLINK-32726

Hit Count: updated at: Sun, 18 May 2025 22:10:49 GMT